Карточка аэропорта UERR

Внимание!
Информация на этой странице в стадии наполнения.
Если вы не увидели какой-то информации, или заметили неточность - пожалуйста сообщите нам!
Спасибо!
Команда RU-STAFF
Название аэропортаМИРНЫЙ
Название аэропорта (англ.)MIRNY
Превышение354 ft. (107.9 m.)
Координаты62°32.082', 114°2.3400000000001'
Высота перехода3100 FT /(600) M
Эшелон перехода
Коды ответчика
Зона ОрВДЯкутск РПИ (UEEE)
Данные METARUERR 150830Z VRB01MPS 9999 -TSRA SCT030CB 20/13 Q1003 R07/CLRD60 NOSIG RMK QFE723/0964
Проноз погоды (TAF)UERR 150800Z 1509/1609 VRB01MPS 9999 SCT023CB TEMPO 1509/1515 VRB17MPS 2000 -TSRA HZ
NOTAMshow/hide NOTAM
AWOS   TABLE

Информация о ВПП


Диспетчерские позиции


Сценарии

Сценарий
Нет результатов.

Схемы

None

Спутниковое изображение